COSMOS 1275 DEB, 13471

Orbit data source: Space-Track

COSMOS 1275 DEB, 13471 is space debris in LEO originally from a launch on Thu, 04 Jun 1981 UTC launched from the Plesetsk Missile And Space Complex (PKMTR). Debris objects in space refer to the collection of defunct objects orbiting the Earth. Examples of debris include non-operational satellites, rocket bodies, and fragments generated from explosions, collisions, or faulty payload assembly.

Loading next visibility...
Identifier
13471, 1981-053FT
Orbit
LEO
Country
Flag of CISCIS
Related business
Manufacturer
Unknown
Mission
Spacecraft
Bus & Motor
Unknown
Mass
Unknown
Launch date (UTC)
1981-06-04 (45 years ago)
Launch vehicle
Unknown
Launch site
Plesetsk Missile And Space Complex (PKMTR)
Object type
Payload
Rocket body
Debris
Shape & HBR
Unknown shape, 0.1 m
Radar Cross Section
Small (<0.1 m²)

Expand to show TLE details & history
Last TLE update: 14 hours ago

TLE from 14 hours ago
0 COSMOS 1275 DEB
1 13471U 81053FT  26067.96573432  .00002176  00000-0  13847-2 0  9994
2 13471  82.8033 266.4661 0050894 245.0698 238.8635 14.02692435213482
Epoch: 2026-03-08T23:10Z
TLE epoch observation values (Epoch: 2026-03-08T23:10:39.445Z)
Latitude
55.98452°
Longitude
-78.58991°
Altitude
913.071 km
Speed
7.391 km/s
True Right ascension
05h 02m 57s
True Declination
55° 49' 42"
Sunlit
Object was in daylight at epoch
Visualization orbit readout
Latitude
Unknown
Longitude
Unknown
Altitude
Unknown
Speed
Unknown
Apparent Right ascension
Unknown
Apparent Declination
Unknown
Sunlit
N/A
Visualization observer readout
Local Sidereal Time
16:57:24
Azimuth
Unknown
Elevation
Unknown
Doppler factor
Unknown
Orbital elements
Apogee altitude
918.55 km
Perigee altitude
844.655 km
Semi-major axis
7,259.74 km
Eccentricity
0.00509
Inclination
82.8033°
RAAN
266.4661°
Arg. of periapsis
245.0698°
True anomaly
238.36596°
Mean anomaly
238.8635°
Eccentric anomaly
238.61457°
Mean motion
3.50882 °/min
Orbital period
102.6 mins
BSTAR
0.0013847
Loading maneuver chart data...
Computing Atmospheric mass density...
Loading historical data...
Loading historical data...
Loading historical data...
Loading historical data...
Loading historical data...
Loading historical data...
Loading historical data...

Documentation

Showing up to 5 results
|